Time,TemperatureF,DewpointF,PressureIn,WindDirection,WindDirectionDegrees,WindSpeedMPH,WindSpeedGustMPH,Humidity,HourlyPrecipIn,Conditions,Clouds,dailyrainin,SoftwareType,DateUTC
2013-04-05 01:00:00,46.0,22.0,-100.00,NW,318,4.0,6.0,39,0.00,,,0.00,,2013-04-05 07:00:00,
2013-04-05 01:42:00,46.0,22.0,-100.00,NW,318,4.0,6.0,39,0.00,,,0.00,,2013-04-05 07:42:00,
2013-04-05 01:52:00,46.0,22.0,-100.00,NW,318,4.0,6.0,39,0.00,,,0.00,,2013-04-05 07:52:00,
2013-04-05 02:00:00,46.0,24.0,-100.00,West,260,6.0,8.0,41,0.00,,,0.00,,2013-04-05 08:00:00,
2013-04-05 02:42:00,46.0,24.0,-100.00,West,260,6.0,8.0,41,0.00,,,0.00,,2013-04-05 08:42:00,
2013-04-05 02:52:00,46.0,24.0,-100.00,West,260,6.0,8.0,41,0.00,,,0.00,,2013-04-05 08:52:00,
2013-04-05 03:00:00,44.0,24.0,-100.00,WSW,243,4.0,5.0,45,0.00,,,0.00,,2013-04-05 09:00:00,
2013-04-05 03:42:00,44.0,24.0,-100.00,WSW,243,4.0,5.0,45,0.00,,,0.00,,2013-04-05 09:42:00,
2013-04-05 03:53:00,44.0,24.0,-100.00,WSW,243,4.0,5.0,45,0.00,,,0.00,,2013-04-05 09:53:00,
2013-04-05 04:00:00,44.0,24.0,-100.00,WSW,253,7.0,8.0,46,0.00,,,-99.99,,2013-04-05 10:00:00,
2013-04-05 04:42:00,44.0,24.0,-100.00,WSW,253,7.0,8.0,46,0.00,,,-99.99,,2013-04-05 10:42:00,
2013-04-05 04:53:00,44.0,24.0,-100.00,WSW,253,7.0,8.0,46,0.00,,,-99.99,,2013-04-05 10:53:00,
2013-04-05 05:00:00,46.0,25.0,-100.00,West,259,5.0,8.0,44,0.00,,,0.00,,2013-04-05 11:00:00,
2013-04-05 05:42:00,46.0,25.0,-100.00,West,259,5.0,8.0,44,0.00,,,0.00,,2013-04-05 11:42:00,
2013-04-05 05:52:00,46.0,25.0,-100.00,West,259,5.0,8.0,44,0.00,,,0.00,,2013-04-05 11:52:00,
2013-04-05 07:00:00,46.0,26.0,-100.00,WNW,295,4.0,6.0,45,0.00,,,0.00,,2013-04-05 13:00:00,
2013-04-05 07:42:00,46.0,26.0,-100.00,WNW,295,4.0,6.0,45,0.00,,,0.00,,2013-04-05 13:42:00,
2013-04-05 07:52:00,46.0,26.0,-100.00,WNW,295,4.0,6.0,45,0.00,,,0.00,,2013-04-05 13:52:00,
2013-04-05 08:00:00,50.0,26.0,-100.00,West,265,1.0,6.0,39,0.00,,,0.00,,2013-04-05 14:00:00,
2013-04-05 08:42:00,50.0,26.0,-100.00,West,265,1.0,6.0,39,0.00,,,0.00,,2013-04-05 14:42:00,
2013-04-05 08:53:00,50.0,26.0,-100.00,West,265,1.0,6.0,39,0.00,,,0.00,,2013-04-05 14:53:00,
2013-04-05 09:00:00,49.0,28.0,-100.00,WNW,291,10.0,13.0,44,0.00,,,0.00,,2013-04-05 15:00:00,
2013-04-05 09:42:00,49.0,28.0,-100.00,WNW,291,10.0,13.0,44,0.00,,,0.00,,2013-04-05 15:42:00,
2013-04-05 09:53:00,49.0,28.0,-100.00,WNW,291,10.0,13.0,44,0.00,,,0.00,,2013-04-05 15:53:00,
2013-04-05 10:00:00,49.0,29.0,-100.00,NNW,340,5.0,9.0,46,0.00,,,0.00,,2013-04-05 16:00:00,
2013-04-05 10:42:00,49.0,29.0,-100.00,NNW,340,5.0,9.0,46,0.00,,,0.00,,2013-04-05 16:42:00,
2013-04-05 10:53:00,49.0,29.0,-100.00,NNW,340,5.0,9.0,46,0.00,,,0.00,,2013-04-05 16:53:00,
2013-04-05 11:00:00,49.0,27.0,-100.00,SW,226,9.0,10.0,43,0.00,,,0.00,,2013-04-05 17:00:00,
2013-04-05 11:45:00,49.0,27.0,-100.00,SW,226,9.0,10.0,43,0.00,,,0.00,,2013-04-05 17:45:00,
2013-04-05 11:52:00,49.0,27.0,-100.00,SW,226,9.0,10.0,43,0.00,,,0.00,,2013-04-05 17:52:00,
2013-04-05 12:00:00,50.0,28.0,-100.00,SSW,202,6.0,8.0,42,0.00,,,0.00,,2013-04-05 18:00:00,
2013-04-05 12:42:00,50.0,28.0,-100.00,SSW,202,6.0,8.0,42,0.00,,,0.00,,2013-04-05 18:42:00,
2013-04-05 12:52:00,50.0,28.0,-100.00,SSW,202,6.0,8.0,42,0.00,,,0.00,,2013-04-05 18:52:00,
2013-04-05 13:00:00,52.0,21.0,-100.00,SW,215,16.0,22.0,29,0.01,,,0.01,,2013-04-05 19:00:00,
2013-04-05 13:42:00,52.0,21.0,-100.00,SW,215,16.0,22.0,29,0.01,,,0.01,,2013-04-05 19:42:00,
2013-04-05 13:52:00,52.0,21.0,-100.00,SW,215,16.0,22.0,29,0.01,,,0.01,,2013-04-05 19:52:00,
2013-04-05 14:00:00,48.0,26.0,-100.00,SSW,207,3.0,16.0,42,0.00,,,0.00,,2013-04-05 20:00:00,
2013-04-05 14:42:00,48.0,26.0,-100.00,SSW,207,3.0,16.0,42,0.00,,,0.00,,2013-04-05 20:42:00,
2013-04-05 14:52:00,48.0,26.0,-100.00,SSW,207,3.0,16.0,42,0.00,,,0.00,,2013-04-05 20:52:00,
2013-04-05 15:00:00,47.0,28.0,-100.00,WSW,238,18.0,29.0,47,0.00,,,0.00,,2013-04-05 21:00:00,
2013-04-05 15:42:00,47.0,28.0,-100.00,WSW,238,18.0,29.0,47,0.00,,,0.00,,2013-04-05 21:42:00,
2013-04-05 15:54:00,47.0,28.0,-100.00,WSW,238,18.0,29.0,47,0.00,,,0.00,,2013-04-05 21:54:00,
2013-04-05 16:00:00,50.0,23.0,-100.00,SW,228,10.0,14.0,34,0.00,,,0.01,,2013-04-05 22:00:00,
2013-04-05 16:42:00,50.0,23.0,-100.00,SW,228,10.0,14.0,34,0.00,,,0.01,,2013-04-05 22:42:00,
2013-04-05 16:53:00,50.0,23.0,-100.00,SW,228,10.0,14.0,34,0.00,,,0.01,,2013-04-05 22:53:00,
2013-04-05 17:00:00,49.0,17.0,-100.00,SSW,202,12.0,24.0,28,0.00,,,0.01,,2013-04-05 23:00:00,
2013-04-05 17:42:00,49.0,17.0,-100.00,SSW,202,12.0,24.0,28,0.00,,,0.01,,2013-04-05 23:42:00,
2013-04-05 17:52:00,49.0,17.0,-100.00,SSW,202,12.0,24.0,28,0.00,,,0.01,,2013-04-05 23:52:00,
2013-04-05 19:00:00,44.0,19.0,-100.00,SW,227,20.0,25.0,37,-99.99,,,0.02,,2013-04-06 01:00:00,
2013-04-05 19:42:00,44.0,19.0,-100.00,SW,227,20.0,25.0,37,-99.99,,,0.02,,2013-04-06 01:42:00,
2013-04-05 19:53:00,44.0,19.0,-100.00,SW,227,20.0,25.0,37,-99.99,,,0.02,,2013-04-06 01:53:00,
2013-04-05 20:00:00,42.0,19.0,-100.00,SW,230,16.0,21.0,40,-99.99,,,0.01,,2013-04-06 02:00:00,
2013-04-05 20:42:00,42.0,19.0,-100.00,SW,230,16.0,21.0,40,-99.99,,,0.01,,2013-04-06 02:42:00,
2013-04-05 20:52:00,42.0,19.0,-100.00,SW,230,16.0,21.0,40,-99.99,,,0.01,,2013-04-06 02:52:00,
2013-04-05 21:00:00,41.0,18.0,-100.00,SW,236,23.0,30.0,38,0.01,,,0.02,,2013-04-06 03:00:00,
2013-04-05 21:42:00,41.0,18.0,-100.00,SW,236,23.0,30.0,38,0.01,,,0.02,,2013-04-06 03:42:00,
2013-04-05 21:54:00,41.0,18.0,-100.00,SW,236,23.0,30.0,38,0.01,,,0.02,,2013-04-06 03:54:00,
2013-04-05 22:00:00,41.0,19.0,-100.00,SW,236,12.0,17.0,40,0.00,,,0.02,,2013-04-06 04:00:00,
2013-04-05 22:42:00,41.0,19.0,-100.00,SW,236,12.0,17.0,40,0.00,,,0.02,,2013-04-06 04:42:00,
2013-04-05 22:53:00,41.0,19.0,-100.00,SW,236,12.0,17.0,40,0.00,,,0.02,,2013-04-06 04:53:00,
2013-04-05 23:00:00,37.0,19.0,-100.00,West,269,6.0,7.0,47,0.00,,,0.02,,2013-04-06 05:00:00,
2013-04-05 23:42:00,37.0,19.0,-100.00,West,269,6.0,7.0,47,0.00,,,0.02,,2013-04-06 05:42:00,
2013-04-05 23:52:00,37.0,19.0,-100.00,West,269,6.0,7.0,47,0.00,,,0.02,,2013-04-06 05:52:00,